NOZ416 ENGM-ENAL

Flight info

Callsign NOZ416
Flight time 0h 44m
Altitude 30000
Route EVTOG7D EVTOG DCT UTRUF DCT UFGUG DCT OBITI OBITI2R
Aircraft B38M/M-SDE1FGHILORVWXY/HB1

Departure

Time 2026-04-30 10:04
Airport Oslo-Gardermoen International Airport (ENGM)

Arrival

Time 2026-04-30 10:48
Airport Ålesund Airport (ENAL)
Time Latitude Longitude Altitude Speed Heading
2026-04-30 09:44 60.19484 11.09270 681 ft 0 kts 16°
2026-04-30 09:56 60.19481 11.09268 687 ft 3 kts 15°
2026-04-30 09:57 60.19456 11.09260 685 ft 4 kts 355°
2026-04-30 09:57 60.19433 11.09277 680 ft 4 kts 310°
2026-04-30 09:57 60.19426 11.09301 681 ft 1 kts 285°
2026-04-30 09:59 60.19433 11.09255 683 ft 6 kts 286°
2026-04-30 10:00 60.19494 11.08824 681 ft 23 kts 285°
2026-04-30 10:00 60.19538 11.08517 677 ft 19 kts 285°
2026-04-30 10:01 60.19668 11.08442 680 ft 13 kts 15°
2026-04-30 10:01 60.19769 11.08501 681 ft 17 kts 17°
2026-04-30 10:01 60.19897 11.08575 681 ft 21 kts 15°
2026-04-30 10:02 60.20220 11.08761 683 ft 24 kts 16°
2026-04-30 10:02 60.20387 11.08858 684 ft 24 kts 16°
2026-04-30 10:02 60.20541 11.08946 682 ft 20 kts 16°
2026-04-30 10:02 60.20646 11.08981 680 ft 11 kts 328°
2026-04-30 10:03 60.20682 11.08815 681 ft 15 kts 286°
2026-04-30 10:03 60.20702 11.08674 682 ft 7 kts 280°
2026-04-30 10:03 60.20686 11.08637 679 ft 0 kts 197°
2026-04-30 10:04 60.20652 11.08616 681 ft 30 kts 196°
2026-04-30 10:04 60.20159 11.08331 679 ft 115 kts 196°
2026-04-30 10:04 60.19150 11.07753 697 ft 181 kts 195°
2026-04-30 10:04 60.17918 11.06990 1585 ft 187 kts 197°
2026-04-30 10:05 60.16675 11.05979 2451 ft 204 kts 211°
2026-04-30 10:05 60.15722 11.03650 3033 ft 229 kts 247°
2026-04-30 10:05 60.15214 11.00562 4049 ft 239 kts 251°
2026-04-30 10:05 60.14592 10.97390 5009 ft 249 kts 247°
2026-04-30 10:06 60.13979 10.94107 6009 ft 255 kts 258°
2026-04-30 10:06 60.13799 10.90560 7064 ft 258 kts 269°
2026-04-30 10:06 60.13753 10.86906 7987 ft 265 kts 269°
2026-04-30 10:06 60.13673 10.83200 9009 ft 268 kts 269°
2026-04-30 10:07 60.13609 10.80709 9656 ft 271 kts 269°
2026-04-30 10:07 60.13501 10.76907 10610 ft 276 kts 269°
2026-04-30 10:07 60.13378 10.72948 11189 ft 294 kts 269°
2026-04-30 10:07 60.13316 10.68732 11663 ft 310 kts 278°
2026-04-30 10:08 60.13987 10.64634 12366 ft 315 kts 301°
2026-04-30 10:08 60.15443 10.61333 13127 ft 319 kts 323°
2026-04-30 10:08 60.17375 10.59094 13982 ft 324 kts 332°
2026-04-30 10:08 60.19393 10.56969 14701 ft 329 kts 332°
2026-04-30 10:09 60.21436 10.54844 15458 ft 332 kts 332°
2026-04-30 10:09 60.23509 10.52725 16183 ft 336 kts 335°
2026-04-30 10:09 60.25698 10.51031 16897 ft 339 kts 339°
2026-04-30 10:09 60.27918 10.49360 17639 ft 342 kts 339°
2026-04-30 10:10 60.30155 10.47647 18348 ft 345 kts 338°
2026-04-30 10:10 60.32407 10.45905 18989 ft 349 kts 338°
2026-04-30 10:10 60.34680 10.44136 19611 ft 352 kts 338°
2026-04-30 10:10 60.36976 10.42343 20200 ft 355 kts 338°
2026-04-30 10:11 60.39283 10.40538 20790 ft 357 kts 338°
2026-04-30 10:11 60.41610 10.38714 21358 ft 361 kts 338°
2026-04-30 10:11 60.43945 10.36881 21901 ft 364 kts 338°
2026-04-30 10:11 60.46313 10.35019 22464 ft 366 kts 337°
2026-04-30 10:12 60.48526 10.32600 22989 ft 367 kts 320°
2026-04-30 10:12 60.50401 10.29062 23537 ft 370 kts 317°
2026-04-30 10:12 60.52316 10.25518 24022 ft 374 kts 317°
2026-04-30 10:12 60.54208 10.21981 24466 ft 376 kts 317°
2026-04-30 10:13 60.56160 10.18310 24900 ft 379 kts 316°
2026-04-30 10:13 60.58073 10.14698 25298 ft 382 kts 316°
2026-04-30 10:13 60.60027 10.11000 25734 ft 385 kts 316°
2026-04-30 10:13 60.61989 10.07279 26152 ft 387 kts 316°
2026-04-30 10:14 60.63966 10.03523 26566 ft 390 kts 316°
2026-04-30 10:14 60.65951 9.99745 26984 ft 392 kts 316°
2026-04-30 10:14 60.69960 9.92096 27850 ft 396 kts 316°
2026-04-30 10:15 60.71975 9.88239 28241 ft 398 kts 316°
2026-04-30 10:15 60.74000 9.84358 28625 ft 401 kts 316°
2026-04-30 10:15 60.76038 9.80444 29061 ft 402 kts 316°
2026-04-30 10:15 60.78074 9.76528 29574 ft 401 kts 316°
2026-04-30 10:16 60.80097 9.72627 30089 ft 400 kts 316°
2026-04-30 10:16 60.82126 9.68711 30379 ft 402 kts 316°
2026-04-30 10:17 60.88178 9.56983 30382 ft 399 kts 316°
2026-04-30 10:17 60.94219 9.45210 30386 ft 399 kts 316°
2026-04-30 10:18 60.98242 9.37334 30389 ft 399 kts 316°
2026-04-30 10:19 61.04259 9.25500 30402 ft 397 kts 315°
2026-04-30 10:19 61.08249 9.17617 30397 ft 397 kts 315°
2026-04-30 10:20 61.12232 9.09719 30408 ft 397 kts 315°
2026-04-30 10:20 61.18219 8.97878 30393 ft 397 kts 319°
2026-04-30 10:21 61.22822 8.91538 30388 ft 398 kts 323°
2026-04-30 10:21 61.27350 8.85024 30412 ft 386 kts 323°
2026-04-30 10:22 61.29511 8.81868 30273 ft 374 kts 323°
2026-04-30 10:22 61.31613 8.78785 29959 ft 367 kts 323°
2026-04-30 10:22 61.33690 8.75730 29507 ft 364 kts 322°
2026-04-30 10:22 61.35747 8.72700 29090 ft 360 kts 322°
2026-04-30 10:23 61.37781 8.69699 28717 ft 356 kts 322°
2026-04-30 10:23 61.39789 8.66730 28320 ft 353 kts 322°
2026-04-30 10:23 61.41782 8.63780 27922 ft 350 kts 322°
2026-04-30 10:23 61.43730 8.60891 27528 ft 347 kts 322°
2026-04-30 10:24 61.45683 8.57989 27165 ft 344 kts 322°
2026-04-30 10:24 61.47627 8.55099 26774 ft 341 kts 322°
2026-04-30 10:24 61.49554 8.52226 26411 ft 339 kts 322°
2026-04-30 10:24 61.51466 8.49373 26049 ft 336 kts 322°
2026-04-30 10:25 61.53362 8.46539 25702 ft 334 kts 321°
2026-04-30 10:25 61.55245 8.43721 25359 ft 331 kts 321°
2026-04-30 10:25 61.57110 8.40925 25019 ft 328 kts 321°
2026-04-30 10:25 61.58963 8.38145 24685 ft 326 kts 321°
2026-04-30 10:26 61.60802 8.35380 24332 ft 324 kts 321°
2026-04-30 10:26 61.62630 8.32627 24005 ft 324 kts 321°
2026-04-30 10:26 61.64480 8.29837 23620 ft 329 kts 321°
2026-04-30 10:26 61.66354 8.27007 23232 ft 332 kts 321°
2026-04-30 10:27 61.68225 8.24175 22928 ft 332 kts 320°
2026-04-30 10:27 61.70094 8.21344 22561 ft 329 kts 320°
2026-04-30 10:27 61.71945 8.18536 22226 ft 325 kts 320°
2026-04-30 10:27 61.73769 8.15765 21902 ft 321 kts 320°
2026-04-30 10:28 61.75571 8.13023 21571 ft 318 kts 320°
2026-04-30 10:28 61.77361 8.10294 21251 ft 316 kts 320°
2026-04-30 10:28 61.79132 8.07592 20921 ft 313 kts 320°
2026-04-30 10:28 61.80889 8.04906 20608 ft 310 kts 320°
2026-04-30 10:29 61.82629 8.02243 20281 ft 307 kts 320°
2026-04-30 10:29 61.84350 7.99605 19988 ft 305 kts 320°
2026-04-30 10:29 61.86080 7.96949 19672 ft 310 kts 320°
2026-04-30 10:29 61.87837 7.94248 19347 ft 314 kts 320°
2026-04-30 10:30 61.89581 7.91563 19043 ft 314 kts 320°
2026-04-30 10:30 61.91350 7.88836 18725 ft 314 kts 319°
2026-04-30 10:30 61.93110 7.86119 18368 ft 312 kts 319°
2026-04-30 10:30 61.94853 7.83425 18019 ft 308 kts 319°
2026-04-30 10:31 61.96576 7.80757 17695 ft 305 kts 319°
2026-04-30 10:31 61.98279 7.78117 17388 ft 301 kts 319°
2026-04-30 10:31 61.99958 7.75510 17094 ft 297 kts 319°
2026-04-30 10:31 62.01618 7.72929 16816 ft 294 kts 319°
2026-04-30 10:32 62.03258 7.70375 16505 ft 291 kts 319°
2026-04-30 10:32 62.04888 7.67834 16205 ft 290 kts 319°
2026-04-30 10:32 62.06531 7.65268 15893 ft 295 kts 319°
2026-04-30 10:32 62.08197 7.62664 15570 ft 299 kts 319°
2026-04-30 10:33 62.09877 7.60034 15263 ft 299 kts 319°
2026-04-30 10:33 62.11544 7.57420 14980 ft 295 kts 319°
2026-04-30 10:33 62.13191 7.54833 14654 ft 292 kts 319°
2026-04-30 10:33 62.14812 7.52286 14378 ft 287 kts 319°
2026-04-30 10:34 62.16416 7.49761 14076 ft 285 kts 319°
2026-04-30 10:34 62.18008 7.47249 13732 ft 283 kts 319°
2026-04-30 10:34 62.19583 7.44763 13437 ft 280 kts 319°
2026-04-30 10:34 62.21144 7.42295 13127 ft 278 kts 319°
2026-04-30 10:35 62.22696 7.39838 12732 ft 277 kts 320°
2026-04-30 10:35 62.24255 7.37362 12300 ft 281 kts 319°
2026-04-30 10:35 62.25839 7.34849 11897 ft 285 kts 319°
2026-04-30 10:35 62.27427 7.32331 11619 ft 285 kts 320°
2026-04-30 10:36 62.29027 7.29782 11248 ft 287 kts 319°
2026-04-30 10:36 62.30626 7.27237 10958 ft 285 kts 319°
2026-04-30 10:36 62.32210 7.24710 10668 ft 283 kts 319°
2026-04-30 10:36 62.33787 7.22190 10390 ft 281 kts 318°
2026-04-30 10:37 62.35354 7.19684 10161 ft 279 kts 318°
2026-04-30 10:37 62.36890 7.17226 10012 ft 272 kts 318°
2026-04-30 10:37 62.38397 7.14809 9758 ft 269 kts 318°
2026-04-30 10:37 62.39873 7.12439 9480 ft 267 kts 318°
2026-04-30 10:38 62.41361 7.10046 9172 ft 266 kts 318°
2026-04-30 10:38 62.42842 7.07666 8855 ft 264 kts 318°
2026-04-30 10:38 62.44296 7.05323 8620 ft 259 kts 318°
2026-04-30 10:38 62.45731 7.03005 8356 ft 257 kts 318°
2026-04-30 10:39 62.47156 7.00700 8091 ft 255 kts 318°
2026-04-30 10:39 62.48576 6.98403 7820 ft 254 kts 318°
2026-04-30 10:39 62.49986 6.96116 7507 ft 253 kts 318°
2026-04-30 10:39 62.51386 6.93846 7264 ft 250 kts 318°
2026-04-30 10:40 62.52772 6.91594 7001 ft 249 kts 319°
2026-04-30 10:40 62.54178 6.89309 6746 ft 256 kts 319°
2026-04-30 10:40 62.55615 6.86970 6425 ft 260 kts 319°
2026-04-30 10:40 62.57064 6.84607 6132 ft 261 kts 319°
2026-04-30 10:41 62.58513 6.82241 5853 ft 261 kts 319°
2026-04-30 10:41 62.59963 6.79875 5535 ft 260 kts 319°
2026-04-30 10:41 62.61403 6.77520 5270 ft 258 kts 318°
2026-04-30 10:41 62.62820 6.75195 5043 ft 251 kts 318°
2026-04-30 10:42 62.64175 6.72972 4874 ft 237 kts 318°
2026-04-30 10:42 62.65441 6.70901 4844 ft 219 kts 318°
2026-04-30 10:42 62.66524 6.68714 4712 ft 212 kts 297°
2026-04-30 10:42 62.66988 6.65690 4488 ft 212 kts 267°
2026-04-30 10:43 62.66765 6.62580 4253 ft 207 kts 250°
2026-04-30 10:43 62.66305 6.59652 4172 ft 208 kts 247°
2026-04-30 10:43 62.65766 6.56687 4013 ft 208 kts 245°
2026-04-30 10:43 62.65204 6.53834 3869 ft 208 kts 244°
2026-04-30 10:44 62.64613 6.50970 3737 ft 207 kts 243°
2026-04-30 10:44 62.64015 6.48138 3581 ft 201 kts 243°
2026-04-30 10:44 62.63436 6.45420 3336 ft 200 kts 243°
2026-04-30 10:44 62.62854 6.42700 3083 ft 198 kts 243°
2026-04-30 10:45 62.62259 6.39917 2828 ft 204 kts 244°
2026-04-30 10:45 62.61659 6.37124 2551 ft 204 kts 243°
2026-04-30 10:45 62.61069 6.34374 2282 ft 203 kts 244°
2026-04-30 10:45 62.60470 6.31590 2025 ft 203 kts 244°
2026-04-30 10:46 62.59880 6.28847 1754 ft 195 kts 244°
2026-04-30 10:46 62.59334 6.26304 1477 ft 177 kts 245°
2026-04-30 10:46 62.58835 6.23984 1230 ft 163 kts 246°
2026-04-30 10:46 62.58384 6.21884 1043 ft 146 kts 247°
2026-04-30 10:47 62.57953 6.19900 834 ft 145 kts 247°
2026-04-30 10:47 62.57529 6.17960 586 ft 139 kts 247°
2026-04-30 10:47 62.57141 6.16080 397 ft 135 kts 245°
2026-04-30 10:47 62.56748 6.14252 235 ft 134 kts 244°
2026-04-30 10:48 62.56347 6.12421 86 ft 132 kts 244°
2026-04-30 10:48 62.56031 6.10964 84 ft 72 kts 245°
2026-04-30 10:48 62.55864 6.10209 59 ft 51 kts 244°
2026-04-30 10:48 62.55778 6.09870 55 ft 9 kts 270°
2026-04-30 10:49 62.55812 6.09894 53 ft 11 kts 79°
2026-04-30 10:49 62.55845 6.10110 61 ft 19 kts 65°
2026-04-30 10:49 62.55908 6.10404 64 ft 21 kts 65°
2026-04-30 10:49 62.55956 6.10634 71 ft 8 kts 75°
2026-04-30 10:50 62.55946 6.10727 70 ft 7 kts 110°
2026-04-30 10:50 62.55922 6.10896 83 ft 17 kts 105°
2026-04-30 10:50 62.55902 6.11116 85 ft 16 kts 77°
2026-04-30 10:50 62.55943 6.11334 82 ft 11 kts 64°
2026-04-30 10:51 62.55956 6.11427 84 ft 3 kts 112°
2026-04-30 10:51 62.55938 6.11455 84 ft 5 kts 153°
2026-04-30 10:51 62.55920 6.11475 83 ft 2 kts 153°
2026-04-30 10:51 62.55915 6.11481 82 ft 0 kts 153°